Regional Weather Roundup
Issued by NWS

Home | Current Version | Previous Version | Text Only | Print | Product List | Glossary Off
Versions: 1 2 3 4 5 6 7 8 9 10 11 12 13 14 15 16 17 18 19 20 21 22 23 24 25 26 27 28 29 30 31 32 33 34 35 36 37 38 39 40 41 42 43 44 45 46 47 48 49 50

364
ASUS43 KDMX 170301
RWRIA

WEATHER ROUNDUP FOR IOWA
NATIONAL WEATHER SERVICE DES MOINES IA
1000 PM CDT WED AUG 16 2017

NOTE: "FAIR" INDICATES FEW OR NO CLOUDS BELOW 12,000 FEET WITH NO
SIGNIFICANT WEATHER AND/OR OBSTRUCTIONS TO VISIBILITY.

* - THESE STATIONS ARE NOT NWS STATIONS...THUS NOT UNDER NWS
QUALITY CONTROL.  THEY ALSO DO NOT REPORT WEATHER SUCH
AS PRECIPITATION OR FOG.

IAZ001>003-012>014-020>022-031>034-043>046-170400-
   NORTHWEST IOWA

CITY           SKY/WX    TMP DP  RH WIND       PRES   REMARKS
CARROLL *      CLEAR     68  66  94 W10       29.77R
CHEROKEE *     CLOUDY    67  66  97 SW8       29.75R
DENISON *      MOCLDY    66  66 100 SW7       29.80R
LE MARS *      DRIZZLE   66  64  94 W14       29.76R
ORANGE CITY *  CLOUDY    66  66 100 W10       29.75R FOG
SHELDON *      CLOUDY    66  64  94 W12G18    29.72R
SIOUX CITY     CLOUDY    67  64  90 W9        29.78S
SPENCER        CLOUDY    68  65  90 W15G21    29.71R
STORM LAKE *   PTCLDY    66  64  94 W8        29.75R
$$

IAZ055>058-069>071-079>083-090>094-170400-
   SOUTHWEST IOWA

CITY           SKY/WX    TMP DP  RH WIND       PRES   REMARKS
ATLANTIC *     CLEAR     68  66  94 SW5       29.79S
AUDUBON *      CLEAR     66  64  94 CALM      29.80R
CLARINDA *     MOCLDY    70  66  88 W5        29.83S
COUNCIL BLFS * MOCLDY    70  68  94 W7        29.82R
CRESTON *      PTCLDY    72  66  83 SW8       29.81F
HARLAN  *      PTCLDY    66  66 100 SW8       29.83R
LAMONI         CLOUDY    74  69  85 SW7       29.81R
RED OAK *      CLEAR     68  66  94 W5        29.81S
SHENANDOAH *   CLEAR     70  68  94 S3        29.81F
$$

IAZ047>049-059>061-072>074-084-170400-
   CENTRAL IOWA

CITY           SKY/WX    TMP DP  RH WIND       PRES   REMARKS
AMES           CLOUDY    73  69  87 W13       29.74S
ANKENY *       CLOUDY    77  66  69 SW9G16    29.75F
BOONE *        CLOUDY    72  66  83 W9G17     29.75R
CHARITON *     CLOUDY    75  68  78 SW7       29.78S
DES MOINES     CLOUDY    76  66  71 SW12      29.75S
GRINNELL*      CLOUDY    76  68  76 SW8       29.76S
KNOXVILLE *    CLOUDY    77  66  69 SW8       29.75S
MARSHALLTOWN   MOCLDY    75  67  76 SW10      29.72F
NEWTON *       CLOUDY    75  66  73 SW9       29.75S
PELLA *        CLOUDY    77  67  69 SW6       29.76F
PERRY *          N/A     70  68  93 W5        29.77R
$$

IAZ004>006-015-016-023>025-035-036-170400-
   NORTH CENTRAL IOWA

CITY           SKY/WX    TMP DP  RH WIND       PRES   REMARKS
ALGONA *       CLOUDY    68  68 100 SW14G21   29.70S
CLARION *      CLOUDY    70  68  94 SW14G20   29.72S
ESTHERVILLE    CLOUDY    67  66  97 SW12G20   29.66S
FORT DODGE *   MOCLDY    70  63  78 SW8       29.74S
MASON CITY     PTCLDY    72  67  84 SW12      29.71R
FOREST CITY *  MOCLDY    70  64  83 SW14G21   29.69S
WEBSTER CITY * CLEAR     70  66  88 SW10G18   29.72S
IOWA FALLS *   MOCLDY    73  67  82 SW10      29.73F
$$

IAZ007>011-017>019-026>030-037>042-050>054-066-170400-
   NORTHEAST IOWA

CITY           SKY/WX    TMP DP  RH WIND       PRES   REMARKS
CEDAR RAPIDS   CLOUDY    75  73  93 S8        29.74F
CHARLES CITY * CLOUDY    73  73 100 S6        29.70F
CLINTON *      CLOUDY    75  73  93 S8        29.79F
DECORAH *      CLOUDY    73  73 100 S12       29.70F FOG
DUBUQUE        MOCLDY    74  71  91 S12       29.77F
MONTICELLO *   MOCLDY    75  73  94 S9        29.75F
OELWEIN *      MOCLDY    75  73  94 S13       29.73F
WATERLOO       CLOUDY    75  68  78 SW6       29.71S
$$

IAZ064-065-067-068-078-170400-
   EAST CENTRAL IOWA

CITY           SKY/WX    TMP DP  RH WIND       PRES   REMARKS
DAVENPORT      PTCLDY    77  72  84 S12       29.80F
IOWA CITY      CLOUDY    79  73  82 S13G18    29.77S HX  82
MUSCATINE *    PTCLDY    77  72  83 S14       29.77F
QUAD CITIES    PTCLDY    78  73  84 S13       29.78F HX  81
$$

IAZ062-063-075>077-085>089-095>099-170400-
   SOUTHEAST IOWA

CITY           SKY/WX    TMP DP  RH WIND       PRES   REMARKS
BURLINGTON     MOCLDY    75  70  84 S12G23    29.80F
FAIRFIELD *    CLOUDY    77  72  83 S9        29.78R
FORT MADISON * PTCLDY    73  72  94 S16       29.81F
KEOKUK *       PTCLDY    73  70  88 S13G20    29.79F
OSKALOOSA *      N/A     76  71  86 SW8G16    29.77F
OTTUMWA        CLOUDY    77  74  90 S10       29.77S
WASHINGTON *   MOCLDY    77  73  88 S9        29.79R
$$

ABBREVIATIONS USED IN REMARKS
   TC - TEMPERATURES IN CELSIUS
  WCI - WIND CHILL INDEX
   HX - HEAT INDEX
  VSB - VISIBILITY
$$





USA.gov is the U.S. government's official web portal to all federal, state and local government web resources and services.